Weather in Klyuchevoye

Russia / Jewish Autonomous Oblast     48°32′07″N   134°43′39″E
temp.,
°C
wind,
m/s
gust,
m/s
humid.,
%
clouds,
%
prec.,
mm/h
press.,
hPa
HPBL,
m
24 september, fri
fri2401:00+7nne33730 0.0 102429
04:00+6n12760 0.0 102510
07:00+6sw11770 0.0 102610
10:00+12w23580 0.0 1027363
13:00+16w34475 0.0 10261185
16:00+18w454334 0.0 10251400
19:00+13wsw226165 0.0 102611
22:00+11ssw3364100 0.0 102635
25 september, sat
sat2501:00+10ssw3467100 0.0 102654
04:00+10ssw4768100 0.0 1027123
07:00+9sw3772100 0.0 1027114
10:00+15sw4658100 0.0 1027409
13:00+18sw5547100 0.0 1026883
16:00+19sw4545100 0.0 10251055
19:00+14sw335899 0.0 102532
22:00+13sw336099 0.0 102541
26 september, sun
sun2601:00+11sw236718 0.0 102522
04:00+9sw33745 0.0 102528
07:00+8sw22805 0.0 102524
10:00+15sw34614 0.0 1025380
13:00+19wsw33460 0.0 1023978
16:00+20wsw23405 0.0 10221225
19:00+15ssw22550 0.0 102111
22:00+12s22640 0.0 102112
27 september, mon
mon2701:00+11ssw22671 0.0 102017
04:00+10ssw227123 0.0 102015
07:00+9sse22775 0.0 101911
10:00+15sse1259100 0.0 1019301
13:00+19ssw3451100 0.0 1017991
16:00+20s4552100 0.0 10151253
19:00+16s357799 0.0 101564
22:00+14s37895 0.0 1014139
28 september, tue
tue2801:00+14s3891100 0.3 1014161
04:00+15ssw41191100 1.8 1013423
07:00+15ssw4995100 0.3 1014358
10:00+16ssw4788100 0.3 1015498
13:00+18ssw468081 0.0 1014698
16:00+19s4776100 0.1 1012671
19:00+18s4983100 0.2 1012325
22:00+16s4988100 0.3 1010194